Starlink 3117

operational
NORAD ID: 49435 Int'l Des: 2021-104 Owner: SPXS Country: US Constellation: starlink
LEOCIRCULAR

About Starlink 3117

Description loading...

Live Position

Loading 3D Globe...

Upcoming Passes

Altitude History

Altitude vs Time

uPlot chart will show altitude changes over time

Two-Line Element Set

1 49435U 21104AD 26015.51290653 .00000768 00000-0 66308-4 0 9996
2 49435 53.2180 87.8408 0001157 89.8064 270.3060 15.08843004230882
Epoch: Jan 15, 2026 • Age: 22 hours

Current Status

Altitude 557.3 km
Velocity 7.58 km/s
Sub-Earth Point -48.76°S, 115.98°E
Launch Date Nov 13, 2021
Age 4.1 years
Type internet

Technical Details

Classification Payload
Mass 290.00 kg
Dry Mass 270.00 kg
Total Mass 290.00 kg
Length 0.20 m
Diameter 2.80 m
Span 9.00 m
Shape Box + pan
Manufacturer SPXS
Bus Type Starlink
Phase Status In Orbit
Owner/State SPXS/US

Large Constellations

Loading constellations...